Regional Weather Roundup
Issued by NWS

Home | Current Version | Previous Version | Text Only | Print | Product List | Glossary Off
Versions: 1 2 3 4 5 6 7 8 9 10 11 12 13 14 15 16 17 18 19 20 21 22 23 24 25 26 27 28 29 30 31 32 33 34 35 36 37 38 39 40 41 42 43 44 45 46 47 48 49 50

000
ASUS43 KDTX 280401
RWRMI
MICHIGAN HOURLY REGIONAL WEATHER ROUNDUP
NATIONAL WEATHER SERVICE DETROIT/PONTIAC MI
1200 AM EDT SAT MAY 28 2016

NOTE: "FAIR" INDICATES FEW OR NO CLOUDS BELOW 12,000 FEET WITH NO
SIGNIFICANT WEATHER AND/OR OBSTRUCTION TO VISIBILITY.

MIZ047>049-052>055-059>063-066>070-074>076-081>083-280500-
SOUTHEAST LOWER MICHIGAN

CITY           SKY/WX    TMP DP  RH WIND       PRES   REMARKS
ADRIAN         CLEAR     71  63  75 CALM      29.98S
ALMA           CLOUDY    74  64  72 CALM      29.94R
ANN ARBOR      CLOUDY    71  62  73 SW5       29.98R
BAD AXE        CLOUDY    69  62  79 SE3       29.97F
CARO           CLOUDY    73  65  76 SE3       29.96S
DETROIT CITY   PTCLDY    73  60  63 SE7       29.98S
DETROIT        CLOUDY    72  61  68 S3        29.99R
FLINT          CLOUDY    78  64  61 SE7       29.96S
GROSSE ILE     CLEAR     72  63  73 SE3       29.97S
HILLSDALE      PTCLDY    75  53  46 S7        29.99R
HOWELL         CLOUDY    74  65  71 SE9       29.98R

CITY           SKY/WX    TMP DP  RH WIND       PRES   REMARKS
JACKSON        PTCLDY    73  63  70 S7        29.98R
LAMBERTVILLE   CLEAR     67  64  89 CALM      29.99R
LANSING        PTCLDY    76  63  64 SE10      29.95S
LAPEER         FAIR      73  62  68 S7        29.98S
MASON          PTCLDY    74  64  71 S13       29.97R
MONROE         PTCLDY    69  64  84 S3        29.98R
PONTIAC        CLOUDY    76  64  66 S5        29.98R
PORT HOPE        N/A     65  61  87 SE7       29.96S
PORT HURON     CLOUDY    68  64  88 CALM      29.99S
TRI CITIES     CLOUDY    76  64  66 SE7       29.94S
MIDLAND        CLOUDY    69  69  99 E3        29.93S FOG
TROY           CLOUDY    77  62  58 SE3       30.00S
SAGINAW HB     CLOUDY    75  61  60 SE6       29.94S
$$
MIZ043>046-050>051-056>058-064>065-071>073-077>080-280500-
SOUTHWEST LOWER MICHIGAN

CITY           SKY/WX    TMP DP  RH WIND       PRES   REMARKS
BATTLE CREEK   PTCLDY    74  62  66 S8        29.96R
BENTON HARBOR  CLOUDY    70  67  90 SE3       29.93R
BIG RAPIDS     CLOUDY    69  68  98 S3        29.94S
COLDWATER      CLEAR     76  57  51 S7        29.96S
FREMONT        CLOUDY    69  69 100 CALM      29.90F
HOLLAND        CLOUDY    69  66  90 SE5       29.93R
GRAND RAPIDS   CLOUDY    73  65  75 SE3       29.92S
IONIA          FAIR      73  63  72 S3        29.92F
KALAMAZOO      CLOUDY    76  60  57 S7        29.94S
LUDINGTON      MOCLDY    69  68  96 SE6       29.89S
MARSHALL       CLEAR     73  62  68 S3        29.95S
MOUNT PLEASANT CLOUDY    71  69  95 CALM      29.92F
MUSKEGON       CLOUDY    70  66  87 S6        29.91R
SOUTH HAVEN    CLOUDY    70  67  91 CALM      29.93R
$$
MIZ016>042-280500-
NORTHERN LOWER MICHIGAN

CITY           SKY/WX    TMP DP  RH WIND       PRES   REMARKS
ALPENA         CLOUDY    63  58  83 SE8       29.96F
BEAVER ISLAND  RAIN      64  63  96 SE6       29.92S
BELLAIRE       LGT RAIN  66  65  95 CALM      29.92S
CADILLAC       RAIN      67  65  91 SE7       29.95F
CHARLEVOIX     DRIZZLE   66  66  99 E6        29.94S
FRANKFORT      CLOUDY    70  67  88 S5        29.88S
GAYLORD        CLOUDY    68  63  84 CALM      29.95F
GRAYLING       CLOUDY    69  64  85 CALM      29.96S
HARBOR SPRINGS CLOUDY    66  65  97 E8        29.93R
HOUGHTON LAKE  LGT RAIN  69  64  84 SE5       29.96R
MANISTEE       CLOUDY    70  64  83 SE6       29.89F
OSCODA         CLOUDY    63  57  82 CALM      29.96F
PELLSTON       CLOUDY    66  65  96 SE3       29.94R
ROGERS CITY    CLOUDY    65  59  80 SE6       29.96S
TRAVERSE CITY  CLOUDY    70  67  90 VRB6      29.90R
$$
MIZ007>008-015-280500-
EASTERN UPPER MICHIGAN

CITY           SKY/WX    TMP DP  RH WIND       PRES   REMARKS
KINROSS          N/A     64  61  88 SE12      29.94R
MACKINAC ISLAN CLOUDY    59  59 100 SE8       29.93S
NEWBERRY       PTCLDY    62  60  94 SE5       29.91S
S. S. MARIE    CLOUDY    65  57  75 E5        29.93F
MUNISING         N/A     63  60  90 SW3       29.87S
$$
MIZ004>006-011>014-085-280500-
CENTRAL UPPER MICHIGAN

CITY           SKY/WX    TMP DP  RH WIND       PRES   REMARKS
MANISTIQUE     LGT RAIN  59  58  97 E7        29.90S
ESCANABA       CLOUDY    57  55  94 SE6       29.87F
MENOMINEE      LGT RAIN  60  60 100 SE5       29.85S FOG
SAWYER-GWINN   DRIZZLE   62  60  94 S8        29.88F
$$
MIZ001>003-009>011-084-280500-
WESTERN UPPER MICHIGAN

CITY           SKY/WX    TMP DP  RH WIND       PRES   REMARKS
IRON MOUNTAIN  LGT RAIN  63  61  93 SE8       29.84F
HOUGHTON       FOG       56  54  93 E9        29.84F VSB 1/2
COPPER HARBOR    N/A     52  51  97 VRB6      29.87F
IRONWOOD       CLOUDY    59  57  94 NE3       29.75F
$$

ABBREVIATIONS USED IN REMARKS
   TC - TEMPERATURE IN CELSIUS
  WCI - WIND CHILL INDEX
   HX - HEAT INDEX
  VSB - VISIBILITY





USA.gov is the U.S. government's official web portal to all federal, state and local government web resources and services.